IK1QAD-3 Weather Reports


time (UTC)temp
C
wind
direction
speed
KPH
gust
KPH
rain 1hr
cm
rain 24hr
cm
rain mn
cm
humidity
%
barometer
mb
20260506234340 12 329 3.2 6.4 0.00 1.50 0.00 92 1010.3
20260506233838 12 325 3.2 4.8 0.00 1.50 0.00 92 1010.2
20260506233335 12 11 1.6 8.0 0.00 1.50 0.00 92 1010.3
20260506232828 12 325 4.8 8.0 0.00 1.50 0.00 92 1010.4
20260506232326 12 312 4.8 8.0 0.00 1.50 0.00 91 1010.4
20260506231843 12 329 4.8 6.4 0.00 1.50 0.00 91 1010.3
20260506231343 12 325 4.8 6.4 0.00 1.50 0.00 90 1010.3
20260506230841 12 355 3.2 9.7 0.00 1.50 0.00 90 1010.3
20260506230335 13 319 8.0 9.7 0.00 1.50 0.00 90 1010.2
20260506225830 13 327 6.4 8.0 0.00 1.50 0.00 90 1010.2
20260506225325 13 319 4.8 6.4 0.00 1.50 0.00 90 1010.2
20260506224841 13 323 4.8 6.4 0.00 1.50 0.00 89 1010.2
20260506224339 13 339 1.6 6.4 0.00 1.50 0.00 89 1010.2
20260506223835 13 329 3.2 6.4 0.00 1.50 0.00 90 1010.2
20260506223336 13 316 3.2 6.4 0.00 1.50 0.00 89 1010.1
20260506222828 13 5 1.6 6.4 0.00 1.50 0.00 88 1010.2
20260506222326 13 341 3.2 8.0 0.00 1.50 0.00 88 1010.2
20260506221844 13 19 4.8 9.7 0.00 1.50 0.00 89 1010.2
20260506221338 13 26 4.8 12.9 0.00 1.50 0.00 89 1010.3
20260506220835 13 5 4.8 12.9 0.00 1.50 0.00 89 1010.1
20260506220328 13 5 3.2 6.4 0.00 1.50 0.00 90 1010.2
20260506215836 13 348 4.8 6.4 0.00 1.50 0.30 90 1010.1
20260506215335 13 330 4.8 6.4 0.00 1.50 0.30 89 1010.1
20260506214830 13 328 4.8 6.4 0.00 1.50 0.30 90 1010.0
20260506214330 13 17 1.6 6.4 0.00 1.50 0.30 90 1010.0
20260506213844 13 18 4.8 6.4 0.00 1.50 0.30 90 1010.0
20260506213343 13 324 1.6 8.0 0.00 1.50 0.30 90 1010.0
20260506212835 13 340 4.8 8.0 0.00 1.50 0.30 89 1009.9
20260506212327 13 311 6.4 8.0 0.00 1.50 0.30 88 1009.9
20260506211824 13 312 4.8 6.4 0.00 1.50 0.30 87 1009.9
20260506211342 13 323 4.8 6.4 0.00 1.50 0.30 87 1009.9
20260506210839 13 355 3.2 8.0 0.00 1.50 0.30 87 1009.9
20260506210337 13 326 6.4 8.0 0.00 1.50 0.30 86 1009.9
20260506205830 13 324 6.4 8.0 0.00 1.50 0.30 85 1009.8
20260506205330 14 339 1.6 9.7 0.00 1.50 0.30 86 1009.9
20260506204842 13 360 3.2 9.7 0.00 1.50 0.30 86 1009.8
20260506204341 13 333 4.8 8.0 0.00 1.50 0.30 85 1009.7
20260506203840 14 342 3.2 6.4 0.00 1.50 0.30 85 1009.6
20260506203335 14 13 4.8 8.0 0.00 1.50 0.30 84 1009.5
20260506202831 14 325 4.8 8.0 0.00 1.50 0.30 83 1009.5
20260506202344 15 340 4.8 6.4 0.00 1.50 0.30 82 1009.4
20260506201843 15 321 4.8 6.4 0.00 1.50 0.30 80 1009.2
20260506201338 16 124 3.2 8.0 0.00 1.50 0.30 79 1009.2
20260506200828 15 308 4.8 9.7 0.00 1.50 0.30 81 1009.2
20260506200328 15 323 4.8 14.5 0.00 1.50 0.30 82 1009.1
20260506195841 15 331 8.0 17.7 0.00 1.50 0.30 82 1009.1
20260506195341 15 333 9.7 17.7 0.00 1.50 0.30 82 1009.0
20260506194837 15 348 6.4 14.5 0.00 1.50 0.30 81 1008.8
20260506194326 15 360 6.4 12.9 0.00 1.50 0.30 81 1008.5
20260506193844 14 334 4.8 8.0 0.00 1.50 0.30 81 1008.5
20260506193333 15 321 4.8 8.0 0.00 1.50 0.30 81 1008.3
20260506192843 15 360 1.6 4.8 0.00 1.50 0.30 81 1008.2
20260506192335 15 5 3.2 8.0 0.00 1.50 0.30 80 1008.2
20260506191833 15 327 3.2 12.9 0.00 1.50 0.30 81 1008.0
20260506191331 15 327 8.0 14.5 0.00 1.50 0.30 80 1008.0
20260506190825 16 318 9.7 12.9 0.00 1.50 0.30 76 1007.9
20260506190343 16 316 0.0 6.4 0.00 1.50 0.30 74 1007.9
20260506185837 16 317 3.2 6.4 0.00 1.50 0.30 75 1007.8
20260506185333 16 146 3.2 6.4 0.00 1.50 0.30 74 1007.8
20260506184828 16 284 0.0 3.2 0.00 1.50 0.30 74 1007.8
20260506184341 17 291 0.0 4.8 0.00 1.50 0.30 74 1007.7
20260506183839 17 270 1.6 4.8 0.00 1.50 0.30 74 1007.6
20260506183335 17 303 3.2 14.5 0.00 1.50 0.30 74 1007.6
20260506182830 17 209 6.4 14.5 0.00 1.50 0.30 73 1007.5
20260506182326 17 154 4.8 16.1 0.00 1.50 0.30 74 1007.5
20260506181844 18 162 6.4 16.1 0.00 1.50 0.30 73 1007.5
20260506181343 18 143 4.8 20.9 0.00 1.50 0.30 66 1007.4
20260506180839 18 210 12.9 20.9 0.00 1.50 0.30 65 1007.3
20260506180336 18 231 9.7 24.1 0.00 1.50 0.30 65 1007.3
20260506175832 18 218 8.0 14.5 0.00 1.50 0.30 68 1007.3
20260506175326 18 134 4.8 19.3 0.00 1.50 0.30 68 1007.2
20260506174825 18 215 8.0 22.5 0.00 1.50 0.30 65 1007.1
20260506174326 18 218 9.7 22.5 0.00 1.50 0.30 65 1007.1
20260506173841 18 194 3.2 22.5 0.00 1.50 0.30 66 1006.9
20260506173342 18 253 11.3 20.9 0.00 1.50 0.30 65 1007.0
20260506172831 18 223 11.3 22.5 0.00 1.50 0.30 65 1006.9
20260506172329 18 216 9.7 25.7 0.00 1.50 0.30 65 1006.9
20260506171829 18 208 14.5 25.7 0.00 1.50 0.30 65 1007.0
20260506171342 19 188 6.4 29.0 0.00 1.50 0.30 65 1007.0
20260506170838 19 222 17.7 27.4 0.00 1.50 0.30 65 1006.8
20260506170335 19 302 11.3 22.5 0.00 1.50 0.30 65 1006.9
20260506165833 19 231 16.1 29.0 0.00 1.50 0.30 64 1006.8
20260506165333 19 220 17.7 29.0 0.00 1.50 0.30 64 1006.8
20260506164827 19 149 12.9 22.5 0.00 1.50 0.30 65 1006.7
20260506164327 19 231 12.9 24.1 0.00 1.50 0.30 66 1006.7
20260506163841 20 183 11.3 30.6 0.00 1.50 0.30 65 1006.7
20260506163338 20 237 16.1 30.6 0.00 1.50 0.30 64 1006.7
20260506162835 20 219 16.1 25.7 0.00 1.50 0.30 65 1006.6
20260506162330 20 240 14.5 29.0 0.00 1.50 0.30 65 1006.6
20260506161829 20 222 9.7 32.2 0.00 1.50 0.30 66 1006.5
20260506161325 20 196 19.3 32.2 0.00 1.50 0.30 66 1006.5
20260506160839 20 218 12.9 32.2 0.00 1.50 0.30 68 1006.5
20260506160338 20 222 19.3 40.2 0.00 1.50 0.30 67 1006.5
20260506155830 20 211 14.5 30.6 0.00 1.50 0.30 67 1006.6
20260506155326 20 219 11.3 37.0 0.00 1.50 0.30 67 1006.5
20260506154839 20 221 12.9 35.4 0.00 1.50 0.30 68 1006.5
20260506154338 20 211 16.1 32.2 0.00 1.50 0.30 68 1006.5
20260506153834 20 259 12.9 24.1 0.00 1.50 0.30 69 1006.5
20260506153329 20 250 8.0 32.2 0.00 1.50 0.30 69 1006.5
20260506152842 20 221 8.0 32.2 0.00 1.50 0.30 70 1006.4
20260506152336 20 184 14.5 27.4 0.00 1.50 0.30 67 1006.5
20260506151836 20 249 8.0 24.1 0.00 1.50 0.30 70 1006.5
20260506151334 20 213 12.9 24.1 0.00 1.50 0.30 68 1006.4
20260506150826 20 198 6.4 20.9 0.00 1.50 0.30 70 1006.6
20260506150326 20 196 12.9 27.4 0.00 1.50 0.30 71 1006.6
20260506145839 20 224 12.9 27.4 0.00 1.50 0.30 70 1006.5
20260506145337 20 207 9.7 22.5 0.00 1.50 0.30 71 1006.6
20260506144836 19 188 12.9 29.0 0.00 1.50 0.30 73 1006.5
20260506144330 18 195 14.5 33.8 0.00 1.50 0.30 73 1006.6
20260506143844 19 153 19.3 35.4 0.00 1.50 0.30 74 1006.7
20260506143341 19 182 17.7 33.8 0.00 1.50 0.30 73 1006.6
20260506142838 19 171 14.5 38.6 0.00 1.50 0.30 76 1006.5
20260506142335 18 205 12.9 38.6 0.00 1.50 0.30 76 1006.6
20260506141831 19 144 14.5 30.6 0.00 1.50 0.30 76 1006.7
20260506141328 19 169 16.1 29.0 0.00 1.50 0.30 74 1006.7
20260506140843 19 202 16.1 35.4 0.00 1.50 0.30 74 1006.7
20260506140325 19 211 19.3 37.0 0.00 1.50 0.30 74 1006.7
20260506135842 20 155 17.7 33.8 0.00 1.50 0.30 72 1006.6
20260506135338 20 243 12.9 27.4 0.00 1.50 0.30 71 1006.7
20260506134835 19 233 14.5 35.4 0.00 1.50 0.30 73 1006.7
20260506134331 20 209 17.7 27.4 0.00 1.50 0.30 69 1006.7
20260506133831 20 249 14.5 35.4 0.00 1.50 0.30 66 1006.7
20260506133327 20 202 19.3 35.4 0.00 1.50 0.30 65 1006.7
20260506132840 20 239 27.4 45.1 0.00 1.50 0.30 64 1006.7
20260506132339 20 205 20.9 45.1 0.00 1.50 0.30 66 1006.7
20260506131832 20 222 20.9 32.2 0.00 1.50 0.30 65 1006.8
20260506131334 20 224 19.3 38.6 0.00 1.50 0.30 64 1006.9
20260506130830 20 229 22.5 40.2 0.00 1.50 0.30 66 1006.7
20260506130325 20 259 24.1 40.2 0.00 1.50 0.30 66 1006.8
20260506125840 20 237 22.5 40.2 0.00 1.50 0.30 67 1006.8
20260506125333 20 219 22.5 40.2 0.00 1.50 0.30 66 1006.7
20260506124829 20 203 20.9 33.8 0.00 1.50 0.30 67 1006.7
20260506124326 20 233 16.1 38.6 0.00 1.50 0.30 68 1006.8
20260506123843 20 245 17.7 45.1 0.00 1.50 0.30 68 1006.9
20260506123341 19 213 22.5 43.5 0.00 1.50 0.30 68 1006.9
20260506122838 19 218 29.0 41.8 0.00 1.50 0.30 66 1006.9
20260506122338 19 190 24.1 40.2 0.00 1.50 0.30 67 1006.9
20260506121834 19 182 19.3 40.2 0.00 1.50 0.30 70 1006.8
20260506121329 19 214 25.7 40.2 0.00 1.50 0.30 69 1006.8
20260506120828 19 180 14.5 33.8 0.00 1.50 0.30 72 1006.7
20260506120342 19 220 19.3 33.8 0.00 1.50 0.30 73 1006.8
20260506115334 18 156 20.9 45.1 0.00 1.50 0.30 76 1006.9
20260506114835 18 154 17.7 38.6 0.00 1.50 0.30 75 1006.9
20260506114328 18 146 20.9 35.4 0.00 1.50 0.30 75 1006.9
20260506113844 19 196 16.1 32.2 0.00 1.50 0.30 74 1006.7
20260506113342 18 188 19.3 40.2 0.00 1.50 0.30 75 1006.8
20260506112834 18 44 20.9 40.2 0.00 1.50 0.30 76 1006.9
20260506111828 18 198 24.1 40.2 0.00 1.50 0.30 74 1007.2
20260506111343 18 217 22.5 40.2 0.00 1.50 0.30 74 1007.3
20260506110843 18 202 20.9 49.9 0.00 1.50 0.30 75 1007.4
20260506110338 18 214 22.5 49.9 0.00 1.50 0.30 74 1007.2
20260506105832 18 213 20.9 35.4 0.00 1.50 0.30 78 1007.4
20260506105329 18 188 22.5 33.8 0.00 1.50 0.30 79 1007.4
20260506104824 18 211 16.1 33.8 0.00 1.50 0.30 79 1007.4
20260506104341 18 201 19.3 37.0 0.00 1.50 0.30 78 1007.5
20260506103837 17 254 17.7 37.0 0.00 1.50 0.30 79 1007.4
20260506103333 18 171 17.7 33.8 0.00 1.50 0.30 79 1007.5
20260506102826 17 229 16.1 33.8 0.00 1.50 0.30 79 1007.6
20260506102341 17 193 19.3 30.6 0.00 1.50 0.30 78 1007.6
20260506101836 17 169 16.1 32.2 0.00 1.50 0.30 78 1007.6
20260506101330 17 204 19.3 30.6 0.00 1.50 0.30 78 1007.7
20260506100825 17 205 19.3 30.6 0.00 1.50 0.30 79 1007.7
20260506100340 17 180 19.3 32.2 0.00 1.50 0.30 78 1007.8
20260506095836 17 218 17.7 35.4 0.00 1.50 0.30 79 1007.8
20260506095336 17 198 16.1 37.0 0.00 1.50 0.30 78 1007.8
20260506094830 17 243 16.1 37.0 0.00 1.50 0.30 79 1007.8
20260506094327 17 169 19.3 29.0 0.00 1.50 0.30 78 1007.9
20260506093843 17 192 14.5 29.0 0.00 1.50 0.30 79 1007.9
20260506093343 17 179 14.5 29.0 0.00 1.50 0.30 79 1007.8
20260506092839 17 219 12.9 30.6 0.00 1.50 0.30 81 1007.8
20260506092334 17 197 17.7 29.0 0.00 1.50 0.30 79 1007.8
20260506091833 17 178 19.3 32.2 0.00 1.50 0.30 79 1007.7
20260506091326 17 204 11.3 22.5 0.00 1.50 0.30 79 1007.8
20260506090844 17 184 16.1 24.1 0.00 1.50 0.30 77 1007.7
20260506090343 17 212 12.9 19.3 0.00 1.50 0.30 78 1007.7
20260506085838 17 160 14.5 20.9 0.00 1.70 0.30 78 1007.7
20260506085336 17 161 11.3 19.3 0.00 1.70 0.30 77 1007.9
20260506084830 17 182 12.9 19.3 0.00 1.70 0.30 78 1007.9
20260506084342 17 193 8.0 16.1 0.00 1.70 0.30 79 1007.9
20260506083840 17 156 9.7 19.3 0.00 1.70 0.30 79 1007.9
20260506083335 17 190 12.9 19.3 0.00 1.70 0.30 78 1007.9
20260506082835 17 178 12.9 19.3 0.00 1.70 0.30 79 1007.9
20260506082330 17 187 9.7 16.1 0.00 1.70 0.30 77 1007.8
20260506081829 17 209 9.7 16.1 0.00 1.70 0.30 78 1007.9
20260506081329 17 179 11.3 16.1 0.00 1.70 0.30 79 1007.8
20260506080844 17 156 11.3 19.3 0.00 1.70 0.30 79 1007.9
20260506080325 17 173 9.7 19.3 0.00 1.70 0.30 79 1007.9
20260506073339 17 180 6.4 16.1 0.00 1.70 0.30 79 1007.8
20260506072836 17 180 6.4 14.5 0.00 1.70 0.30 80 1007.8
20260506072332 16 36 6.4 9.7 0.00 1.70 0.30 81 1007.7
20260506071824 16 94 4.8 8.0 0.00 1.70 0.30 82 1007.6
20260506071339 16 175 4.8 8.0 0.00 1.70 0.30 82 1007.6
20260506070836 16 206 1.6 8.0 0.00 1.70 0.30 85 1007.5
20260506070335 16 196 4.8 8.0 0.00 1.70 0.30 85 1007.5
20260506062335 13 337 0.0 0.0 0.00 1.70 0.30 94 1007.0
20260506061829 13 337 0.0 1.6 0.00 1.70 0.30 95 1007.0
20260506061328 13 332 0.0 4.8 0.00 1.70 0.30 95 1007.1
20260506060842 13 325 1.6 4.8 0.00 1.70 0.30 94 1007.0
20260506060338 13 325 3.2 4.8 0.00 1.70 0.30 94 1007.2
20260506051331 13 344 0.0 6.4 0.61 1.70 0.30 93 1007.5
20260506050830 13 300 0.0 9.7 0.61 1.70 0.30 93 1007.9
20260506050343 13 319 6.4 9.7 0.61 1.70 0.30 93 1007.8
20260506044842 13 26 6.4 12.9 0.51 1.70 0.28 92 1007.9
20260506044339 13 323 4.8 12.9 0.30 1.50 0.23 92 1008.1
20260506043834 13 274 8.0 16.1 0.20 1.40 0.23 92 1008.2
20260506043334 13 245 11.3 16.1 0.10 1.30 0.20 93 1008.1
20260506042828 13 281 11.3 16.1 0.00 1.19 0.18 93 1008.1
20260506042341 13 242 9.7 16.1 0.00 1.19 0.18 94 1008.1
20260506041841 13 323 0.0 3.2 0.00 1.19 0.18 94 1007.9
20260506041336 13 325 1.6 4.8 0.00 1.19 0.18 94 1007.7
20260506040834 12 342 3.2 8.0 0.00 1.19 0.18 94 1007.7
20260506040333 12 350 4.8 8.0 0.00 1.19 0.18 94 1007.9
20260506035826 12 16 0.0 4.8 0.00 4.39 0.18 94 1007.9
20260506035324 12 328 1.6 6.4 0.00 4.39 0.18 94 1008.0
20260506034836 12 316 4.8 6.4 0.00 4.39 0.18 93 1008.1
20260506034338 12 318 3.2 4.8 0.00 4.39 0.18 93 1008.1
20260506033837 13 321 3.2 6.4 0.00 4.39 0.18 93 1008.3
20260506033331 13 329 3.2 6.4 0.00 4.39 0.18 93 1008.1
20260506032828 13 327 4.8 8.0 0.00 4.39 0.18 93 1008.2
20260506032342 13 323 6.4 8.0 0.00 4.39 0.18 93 1008.3
20260506031842 13 316 4.8 6.4 0.00 4.39 0.18 92 1008.1
20260506031338 13 335 3.2 6.4 0.00 4.39 0.18 93 1008.4
20260506030831 13 321 3.2 6.4 0.00 4.39 0.18 92 1008.5
20260506030328 13 311 3.2 6.4 0.00 4.39 0.18 92 1008.5
20260506025842 12 300 1.6 6.4 0.00 7.70 0.18 92 1008.5
20260506025340 12 303 3.2 8.0 0.00 7.70 0.18 92 1008.4
20260506024834 12 305 4.8 9.7 0.00 7.70 0.18 92 1008.2
20260506024330 12 319 3.2 9.7 0.00 7.70 0.18 93 1008.0
20260506023827 12 338 3.2 4.8 0.00 7.70 0.18 93 1007.9
20260506023342 12 320 3.2 6.4 0.00 7.70 0.18 93 1008.0
20260506022839 12 302 3.2 8.0 0.00 7.70 0.18 92 1008.2
20260506022338 12 298 4.8 8.0 0.00 7.70 0.18 92 1008.4
20260506021830 12 311 6.4 9.7 0.00 7.70 0.18 92 1008.5
20260506021329 12 308 4.8 9.7 0.00 7.70 0.18 92 1008.5
20260506020840 12 329 6.4 12.9 0.00 7.70 0.18 92 1008.5
20260506020337 12 332 4.8 12.9 0.00 7.70 0.18 93 1008.6
20260506015837 12 313 6.4 8.0 0.00 12.80 0.18 92 1008.7
20260506015330 12 304 4.8 6.4 0.00 12.80 0.18 92 1008.9
20260506014826 13 296 1.6 4.8 0.00 12.80 0.18 91 1009.0
20260506014339 13 297 3.2 6.4 0.00 12.80 0.18 91 1009.1
20260506013835 13 309 1.6 6.4 0.00 12.80 0.18 91 1009.2
20260506013330 13 273 1.6 8.0 0.00 12.80 0.18 90 1009.3
20260506012826 13 307 4.8 12.9 0.00 12.80 0.18 90 1009.2
20260506012343 13 325 6.4 14.5 0.00 12.80 0.18 91 1009.0
20260506011835 13 344 6.4 14.5 0.00 12.80 0.18 91 1009.2
20260506011335 13 337 6.4 9.7 0.10 12.80 0.18 91 1009.3
20260506010832 13 329 4.8 12.9 0.20 12.80 0.18 91 1009.3
20260506010326 13 322 6.4 12.9 0.30 12.80 0.18 92 1009.2
20260506005826 13 317 8.0 12.9 0.30 16.00 0.18 92 1009.3
20260506005341 13 331 4.8 9.7 0.30 16.00 0.18 92 1009.4
20260506004838 13 345 3.2 9.7 0.41 16.00 0.18 92 1009.5
20260506004338 13 323 6.4 9.7 0.61 16.00 0.18 93 1009.6
20260506003832 13 313 4.8 9.7 0.79 16.00 0.18 93 1009.6
20260506003333 13 323 4.8 12.9 0.89 16.00 0.18 93 1009.6
20260506002825 13 308 4.8 12.9 0.89 16.00 0.18 92 1009.6
20260506002343 13 305 4.8 9.7 0.89 16.00 0.18 92 1009.8
20260506001838 13 335 4.8 12.9 0.79 15.90 0.15 92 1010.0
20260506001334 13 9 3.2 14.5 0.79 15.90 0.15 92 1010.1
20260506000832 13 315 11.3 14.5 0.71 15.80 0.15 92 1010.4
20260506000330 13 267 6.4 11.3 0.61 15.70 0.13 92 1010.6
20260505235824 13 244 8.0 11.3 0.61 20.09 0.13 92 1010.6
20260505235340 13 247 6.4 14.5 0.61 20.09 0.13 92 1010.5
20260505234833 13 268 4.8 9.7 0.41 19.89 0.08 91 1010.5